START_TIME,STEP,MOV.,M6,t_acc.,M7,t_acc.,M19,t_acc.,H36,t_acc.
1980-11-14 18:00:15.680 ,6,0,0.,12.0,0.,12.0,0.,12.0,0.,12.0
1980-11-14 18:00:27.680 ,6,0,0.,12.0,0.,12.0,0.,12.0,0.,12.0
1980-11-14 18:00:39.680 ,5,1,0.,12.0,0.,12.0,0.,12.0,0.,12.0
1980-11-14 18:00:51.680 ,5,1,0.,12.0,0.,12.0,0.,12.0,0.,12.0
1980-11-14 18:01:03.680 ,5,0,0.,12.0,0.,12.0,0.,12.0,0.,12.0
1980-11-14 18:01:15.680 ,5,0,0.,12.0,0.,12.0,0.,12.0,0.,12.0
1980-11-14 18:01:27.680 ,4,1,0.,12.0,0.,12.0,0.,12.0,0.,12.0
1980-11-14 18:01:39.680 ,4,1,0.,12.0,0.,12.0,0.,12.0,0.,12.0
1980-11-14 18:01:51.680 ,4,0,0.,12.0,0.,12.0,0.,12.0,0.,12.0
1980-11-14 18:02:03.680 ,4,0,0.,12.0,0.,12.0,0.,12.0,0.,12.0
1980-11-14 18:02:15.680 ,3,1,0.,12.0,0.,12.0,0.,12.0,0.,12.0
1980-11-14 18:02:27.680 ,3,1,0.,12.0,0.,12.0,0.,12.0,0.,12.0
1980-11-14 18:02:39.680 ,3,0,0.,12.0,0.,12.0,0.,12.0,0.,12.0
1980-11-14 18:02:51.680 ,3,0,0.,12.0,0.,12.0,0.,12.0,0.,12.0
1980-11-14 18:03:03.680 ,2,1,0.,12.0,0.,12.0,0.,12.0,0.,12.0
1980-11-14 18:03:15.680 ,2,1,0.,12.0,0.,12.0,0.,12.0,0.,12.0
1980-11-14 18:03:27.680 ,2,0,0.,12.0,0.,12.0,0.,12.0,0.,12.0
1980-11-14 18:03:39.680 ,2,0,0.,12.0,0.,12.0,0.,12.0,0.,12.0
1980-11-14 18:03:51.680 ,1,1,0.,12.0,0.,12.0,0.,12.0,0.,12.0
1980-11-14 18:04:03.680 ,1,1,0.,12.0,0.,12.0,0.,12.0,0.,12.0
1980-11-14 18:04:15.680 ,1,0,0.,12.0,0.,12.0,0.,12.0,0.,12.0
1980-11-14 18:04:27.680 ,1,0,0.,12.0,0.,12.0,0.,12.0,0.,12.0
1980-11-14 18:04:39.680 ,0,1,0.,12.0,0.,12.0,0.,12.0,0.,12.0
1980-11-14 18:04:51.680 ,0,1,0.,12.0,0.,12.0,0.,12.0,0.,12.0
1980-11-14 18:05:03.680 ,0,0,0.,12.0,0.,12.0,0.,12.0,0.,12.0
1980-11-14 18:05:15.680 ,0,0,0.,12.0,0.,12.0,0.,12.0,0.,12.0
1980-11-14 18:05:27.680 ,0,1,0.,12.0,0.,12.0,0.,12.0,0.,12.0
1980-11-14 18:05:39.680 ,0,1,0.,12.0,0.,12.0,0.,12.0,0.,12.0
1980-11-14 18:05:51.680 ,0,0,0.,12.0,0.,12.0,0.,12.0,0.,12.0
1980-11-14 18:06:03.680 ,0,0,0.,12.0,0.,12.0,0.,12.0,0.,12.0
1980-11-14 18:06:15.680 ,1,1,0.,12.0,0.,12.0,0.,12.0,0.,12.0
1980-11-14 18:06:27.680 ,1,1,0.,12.0,0.,12.0,0.,12.0,0.,12.0
1980-11-14 18:06:39.680 ,1,0,0.,12.0,0.,12.0,0.,12.0,0.,12.0
1980-11-14 18:06:51.680 ,1,0,0.,12.0,0.,12.0,0.,12.0,0.,12.0
1980-11-14 18:07:03.680 ,2,1,0.,12.0,0.,12.0,0.,12.0,0.,12.0
1980-11-14 18:07:15.680 ,2,1,0.,12.0,0.,12.0,0.,12.0,0.,12.0
1980-11-14 18:07:27.680 ,2,0,0.,12.0,0.,12.0,0.,12.0,0.,12.0
1980-11-14 18:07:39.680 ,2,0,0.,12.0,0.,12.0,0.,12.0,0.,12.0
1980-11-14 18:07:51.680 ,3,1,0.,12.0,0.,12.0,0.,12.0,0.,12.0
1980-11-14 18:08:03.680 ,3,1,0.,12.0,0.,12.0,0.,12.0,0.,12.0
1980-11-14 18:08:15.680 ,3,0,0.,12.0,0.,12.0,0.,12.0,0.,12.0
1980-11-14 18:08:27.680 ,3,0,0.,12.0,0.,12.0,0.,12.0,0.,12.0
1980-11-14 18:08:39.670 ,4,1,0.,12.0,0.,12.0,0.,12.0,0.,12.0
1980-11-14 18:08:51.680 ,4,1,0.,12.0,0.,12.0,0.,12.0,0.,12.0
1980-11-14 18:09:03.670 ,4,0,0.,12.0,0.,12.0,0.,12.0,0.,12.0
1980-11-14 18:09:15.670 ,4,0,0.,12.0,0.,12.0,0.,12.0,0.,12.0
1980-11-14 18:09:27.670 ,5,1,0.,12.0,0.,12.0,0.,12.0,0.,12.0
1980-11-14 18:09:39.680 ,5,1,0.,12.0,0.,12.0,0.,12.0,0.,12.0
1980-11-14 18:09:51.670 ,5,0,0.,12.0,0.,12.0,0.,12.0,0.,12.0
1980-11-14 18:10:03.680 ,5,0,0.,12.0,0.,12.0,0.,12.0,0.,12.0
1980-11-14 18:10:15.670 ,6,1,0.,12.0,0.,12.0,0.,12.0,0.,12.0
1980-11-14 18:10:27.680 ,6,1,0.,12.0,0.,12.0,0.,12.0,0.,12.0
1980-11-14 18:10:39.670 ,6,0,0.,12.0,0.,12.0,0.,12.0,0.,12.0
1980-11-14 18:10:51.680 ,6,0,0.,12.0,0.,12.0,0.,12.0,0.,12.0
1980-11-14 18:11:03.670 ,7,1,0.,12.0,0.,12.0,0.,12.0,0.,12.0
1980-11-14 18:11:15.670 ,7,1,0.,12.0,0.,12.0,0.,12.0,0.,12.0
1980-11-14 18:11:27.670 ,7,0,0.,12.0,0.,12.0,0.,12.0,0.,12.0
1980-11-14 18:11:39.680 ,7,0,0.,12.0,0.,12.0,0.,12.0,0.,12.0
1980-11-14 18:11:51.670 ,7,1,0.,12.0,0.,12.0,0.,12.0,0.,12.0
1980-11-14 18:12:03.680 ,7,1,0.,12.0,0.,12.0,0.,12.0,0.,12.0
1980-11-14 18:12:15.670 ,7,0,0.,12.0,0.,12.0,0.,12.0,0.,12.0
1980-11-14 18:12:27.680 ,7,0,0.,12.0,0.,12.0,0.,12.0,0.,12.0
1980-11-14 18:12:39.670 ,6,1,0.,12.0,0.,12.0,0.,12.0,0.,12.0
1980-11-14 18:12:51.680 ,6,1,0.,12.0,0.,12.0,0.,12.0,0.,12.0
1980-11-14 18:13:03.670 ,6,0,0.,12.0,0.,12.0,0.,12.0,0.,12.0
1980-11-14 18:13:15.670 ,6,0,0.,12.0,0.,12.0,0.,12.0,0.,12.0
1980-11-14 18:13:27.670 ,5,1,0.,12.0,0.,12.0,0.,12.0,0.,12.0
1980-11-14 18:13:39.680 ,5,1,0.,12.0,0.,12.0,0.,12.0,0.,12.0
1980-11-14 18:13:51.670 ,5,0,0.,12.0,0.,12.0,0.,12.0,0.,12.0
1980-11-14 18:14:03.680 ,5,0,0.,12.0,0.,12.0,0.,12.0,0.,12.0
1980-11-14 18:14:15.670 ,4,1,0.,12.0,0.,12.0,0.,12.0,0.,12.0
1980-11-14 18:14:27.680 ,4,1,0.,12.0,0.,12.0,0.,12.0,0.,12.0
1980-11-14 18:14:39.670 ,4,0,0.,12.0,0.,12.0,0.,12.0,0.,12.0
1980-11-14 18:14:51.680 ,4,0,0.,12.0,0.,12.0,0.,12.0,0.,12.0
1980-11-14 18:15:03.670 ,3,1,0.,12.0,0.,12.0,0.,12.0,0.,12.0
1980-11-14 18:15:15.670 ,3,1,0.,12.0,0.,12.0,0.,12.0,0.,12.0
1980-11-14 18:15:27.670 ,3,0,0.,12.0,0.,12.0,0.,12.0,0.,12.0
1980-11-14 18:15:39.680 ,3,0,0.,12.0,0.,12.0,0.,12.0,0.,12.0
1980-11-14 18:15:51.670 ,2,1,0.,12.0,0.,12.0,0.,12.0,0.,12.0
1980-11-14 18:16:03.680 ,2,1,0.,12.0,0.,12.0,0.,12.0,0.,12.0
1980-11-14 18:16:15.670 ,2,0,0.,12.0,0.,12.0,0.,12.0,0.,12.0
1980-11-14 18:16:27.680 ,2,0,0.,12.0,0.,12.0,0.,12.0,0.,12.0
1980-11-14 18:16:39.670 ,1,1,0.,12.0,0.,12.0,0.,12.0,0.,12.0
1980-11-14 18:16:51.680 ,1,1,0.,12.0,0.,12.0,0.,12.0,0.,12.0
1980-11-14 18:17:03.670 ,1,0,0.,12.0,0.,12.0,0.,12.0,0.,12.0
1980-11-14 18:17:15.680 ,1,0,0.,12.0,0.,12.0,0.,12.0,0.,12.0
1980-11-14 18:17:27.670 ,0,1,0.,12.0,0.,12.0,0.,12.0,0.,12.0
1980-11-14 18:17:39.670 ,0,1,0.,12.0,0.,12.0,0.,12.0,0.,12.0
1980-11-14 18:17:51.670 ,0,0,0.,12.0,0.,12.0,0.,12.0,0.,12.0
1980-11-14 18:18:03.670 ,0,0,0.,12.0,0.,12.0,0.,12.0,0.,12.0
1980-11-14 18:18:15.670 ,0,1,0.,12.0,0.,12.0,0.,12.0,0.,12.0
1980-11-14 18:18:27.670 ,0,1,0.,12.0,0.,12.0,0.,12.0,0.,12.0
1980-11-14 18:18:39.670 ,0,0,0.,12.0,0.,12.0,0.,12.0,0.,12.0
1980-11-14 18:18:51.670 ,0,0,0.,12.0,0.,12.0,0.,12.0,0.,12.0
1980-11-14 18:19:03.670 ,1,1,0.,12.0,0.,12.0,0.,12.0,0.,12.0
1980-11-14 18:19:15.670 ,1,1,0.,12.0,0.,12.0,0.,12.0,0.,12.0
1980-11-14 18:19:27.670 ,1,0,0.,12.0,0.,12.0,0.,12.0,0.,12.0
1980-11-14 18:19:39.670 ,1,0,0.,12.0,0.,12.0,0.,12.0,0.,12.0
1980-11-14 18:19:51.670 ,2,1,0.,12.0,0.,12.0,0.,12.0,0.,12.0
1980-11-14 18:20:03.670 ,2,1,0.,12.0,0.,12.0,0.,12.0,0.,12.0
1980-11-14 18:20:15.670 ,2,0,0.,12.0,0.,12.0,0.,12.0,0.,12.0
1980-11-14 18:20:27.670 ,2,0,0.,12.0,0.,12.0,0.,12.0,0.,12.0
1980-11-14 18:20:39.670 ,3,1,0.,12.0,0.,12.0,0.,12.0,0.,12.0
1980-11-14 18:20:51.670 ,3,1,0.,12.0,0.,12.0,0.,12.0,0.,12.0
1980-11-14 18:21:03.670 ,3,0,0.,12.0,0.,12.0,0.,12.0,0.,12.0
1980-11-14 18:21:15.670 ,3,0,0.,12.0,0.,12.0,0.,12.0,0.,12.0
1980-11-14 18:21:27.670 ,4,1,0.,12.0,0.,12.0,0.,12.0,0.,12.0
1980-11-14 18:21:39.670 ,4,1,0.,12.0,0.,12.0,0.,12.0,0.,12.0
1980-11-14 18:21:51.670 ,4,0,0.,12.0,0.,12.0,0.,12.0,0.,12.0
1980-11-14 18:22:03.670 ,4,0,0.,12.0,0.,12.0,0.,12.0,0.,12.0
1980-11-14 18:22:15.670 ,5,1,0.,12.0,0.,12.0,0.,12.0,0.,12.0
1980-11-14 18:22:27.670 ,5,1,0.,12.0,0.,12.0,0.,12.0,0.,12.0
1980-11-14 18:22:39.670 ,5,0,0.,12.0,0.,12.0,0.,12.0,0.,12.0
1980-11-14 18:22:51.670 ,5,0,0.,12.0,0.,12.0,0.,12.0,0.,12.0
1980-11-14 18:23:03.670 ,6,1,0.,12.0,0.,12.0,0.,12.0,0.,12.0
1980-11-14 18:23:15.670 ,6,1,0.,12.0,0.,12.0,0.,12.0,0.,12.0
1980-11-14 18:23:27.670 ,6,0,0.,12.0,0.,12.0,0.,12.0,0.,12.0
1980-11-14 18:23:39.670 ,6,0,0.,12.0,0.,12.0,0.,12.0,0.,12.0
1980-11-14 18:23:51.670 ,7,1,0.,12.0,0.,12.0,0.,12.0,0.,12.0
1980-11-14 18:24:03.670 ,7,1,0.,12.0,0.,12.0,0.,12.0,0.,12.0
1980-11-14 18:24:15.670 ,7,0,0.,12.0,0.,12.0,0.,12.0,0.,12.0
1980-11-14 18:24:27.670 ,7,0,0.,12.0,0.,12.0,0.,12.0,0.,12.0
1980-11-14 18:24:39.670 ,7,1,0.,12.0,0.,12.0,0.,12.0,0.,12.0
1980-11-14 18:24:51.670 ,7,1,0.,12.0,0.,12.0,0.,12.0,0.,12.0
1980-11-14 18:25:03.670 ,7,0,0.,12.0,0.,12.0,0.,12.0,0.,12.0
1980-11-14 18:25:15.670 ,7,0,0.,12.0,0.,12.0,0.,12.0,0.,12.0
1980-11-14 18:25:27.670 ,6,1,0.,12.0,0.,12.0,0.,12.0,0.,12.0
1980-11-14 18:25:39.670 ,6,1,0.,12.0,0.,12.0,0.,12.0,0.,12.0
1980-11-14 18:25:51.670 ,6,0,0.,12.0,0.,12.0,0.,12.0,0.,12.0
1980-11-14 18:26:03.670 ,6,0,0.,12.0,0.,12.0,0.,12.0,0.,12.0
1980-11-14 18:26:15.670 ,5,1,0.,12.0,0.,12.0,0.,12.0,0.,12.0
1980-11-14 18:26:27.670 ,5,1,0.,12.0,0.,12.0,0.,12.0,0.,12.0
1980-11-14 18:26:39.670 ,5,0,0.,12.0,0.,12.0,0.,12.0,0.,12.0
1980-11-14 18:26:51.670 ,5,0,0.,12.0,0.,12.0,0.,12.0,0.,12.0
1980-11-14 18:27:03.670 ,4,1,0.,12.0,0.,12.0,0.,12.0,0.,12.0
1980-11-14 18:27:15.670 ,4,1,0.,12.0,0.,12.0,0.,12.0,0.,12.0
1980-11-14 18:27:27.670 ,4,0,0.,12.0,0.,12.0,0.,12.0,0.,12.0
1980-11-14 18:27:39.670 ,4,0,0.,12.0,0.,12.0,0.,12.0,0.,12.0
1980-11-14 18:27:51.670 ,3,1,0.,12.0,0.,12.0,0.,12.0,0.,12.0
1980-11-14 18:28:03.670 ,3,1,0.,12.0,0.,12.0,0.,12.0,0.,12.0
1980-11-14 18:28:15.670 ,3,0,0.,12.0,0.,12.0,0.,12.0,0.,12.0
1980-11-14 18:28:27.670 ,3,0,0.,12.0,0.,12.0,0.,12.0,0.,12.0
1980-11-14 18:28:39.670 ,2,1,0.,12.0,0.,12.0,0.,12.0,0.,12.0
1980-11-14 18:28:51.670 ,2,1,0.,12.0,0.,12.0,0.,12.0,0.,12.0
1980-11-14 18:29:03.670 ,2,0,0.,12.0,0.,12.0,0.,12.0,0.,12.0
1980-11-14 18:29:15.670 ,2,0,0.,12.0,0.,12.0,0.,12.0,0.,12.0
1980-11-14 18:29:27.670 ,1,1,0.,12.0,0.,12.0,0.,12.0,0.,12.0
1980-11-14 18:29:39.670 ,1,1,0.,12.0,0.,12.0,0.,12.0,0.,12.0
1980-11-14 18:29:51.670 ,1,0,0.,12.0,0.,12.0,0.,12.0,0.,12.0
1980-11-14 18:30:03.670 ,1,0,0.,12.0,0.,12.0,0.,12.0,0.,12.0
1980-11-14 18:30:15.670 ,0,1,0.,12.0,0.,12.0,0.,12.0,0.,12.0
1980-11-14 18:30:27.670 ,0,1,0.,12.0,0.,12.0,0.,12.0,0.,12.0
1980-11-14 18:30:39.670 ,0,0,0.,12.0,0.,12.0,0.,12.0,0.,12.0
1980-11-14 18:30:51.670 ,0,0,0.,12.0,0.,12.0,0.,12.0,0.,12.0
1980-11-14 18:31:03.670 ,0,1,0.,12.0,0.,12.0,0.,12.0,0.,12.0
1980-11-14 18:31:15.670 ,0,1,0.,12.0,0.,12.0,0.,12.0,0.,12.0
1980-11-14 18:31:27.670 ,0,0,0.,12.0,0.,12.0,0.,12.0,0.,12.0
1980-11-14 18:31:39.670 ,0,0,0.,12.0,0.,12.0,0.,12.0,0.,12.0
1980-11-14 18:31:51.670 ,1,1,0.,12.0,0.,12.0,0.,12.0,0.,12.0
1980-11-14 18:32:03.670 ,1,1,0.,12.0,0.,12.0,0.,12.0,0.,12.0
1980-11-14 18:32:15.670 ,1,0,0.,12.0,0.,12.0,0.,12.0,0.,12.0
1980-11-14 18:32:27.670 ,1,0,0.,12.0,0.,12.0,0.,12.0,0.,12.0
1980-11-14 18:32:39.670 ,2,1,0.,12.0,0.,12.0,0.,12.0,0.,12.0
1980-11-14 18:32:51.670 ,2,1,0.,12.0,0.,12.0,0.,12.0,0.,12.0
1980-11-14 18:33:03.670 ,2,0,0.,12.0,0.,12.0,0.,12.0,0.,12.0
1980-11-14 18:33:15.670 ,2,0,0.,12.0,0.,12.0,0.,12.0,0.,12.0
1980-11-14 18:33:27.670 ,3,1,0.,12.0,0.,12.0,0.,12.0,0.,12.0
1980-11-14 18:33:39.670 ,3,1,0.,12.0,0.,12.0,0.,12.0,0.,12.0
1980-11-14 18:33:51.670 ,3,0,0.,12.0,0.,12.0,0.,12.0,0.,12.0
1980-11-14 18:34:03.670 ,3,0,0.,12.0,0.,12.0,0.,12.0,0.,12.0
1980-11-14 18:34:15.680 ,4,1,0.,12.0,0.,12.0,0.,12.0,0.,12.0
1980-11-14 18:34:27.680 ,4,1,0.,12.0,0.,12.0,0.,12.0,0.,12.0
1980-11-14 18:34:39.680 ,4,0,0.,12.0,0.,12.0,0.,12.0,0.,12.0
1980-11-14 18:34:51.680 ,4,0,0.,12.0,0.,12.0,0.,12.0,0.,12.0
1980-11-14 18:35:03.680 ,5,1,0.,12.0,0.,12.0,0.,12.0,0.,12.0
1980-11-14 18:35:15.680 ,5,1,0.,12.0,0.,12.0,0.,12.0,0.,12.0
1980-11-14 18:35:27.680 ,5,0,0.,12.0,0.,12.0,0.,12.0,0.,12.0
1980-11-14 18:35:39.680 ,5,0,0.,12.0,0.,12.0,0.,12.0,0.,12.0
1980-11-14 18:35:51.680 ,6,1,0.,12.0,0.,12.0,0.,12.0,0.,12.0
1980-11-14 18:36:03.680 ,6,1,0.,12.0,0.,12.0,0.,12.0,0.,12.0
1980-11-14 18:36:15.680 ,6,0,0.,12.0,0.,12.0,0.,12.0,0.,12.0
1980-11-14 18:36:27.680 ,6,0,0.,12.0,0.,12.0,0.,12.0,0.,12.0
1980-11-14 18:36:39.680 ,7,1,0.,12.0,0.,12.0,0.,12.0,0.,12.0
1980-11-14 18:36:51.680 ,7,1,0.,12.0,0.,12.0,0.,12.0,0.,12.0
1980-11-14 18:37:03.680 ,7,0,0.,12.0,0.,12.0,0.,12.0,0.,12.0
1980-11-14 18:37:15.680 ,7,0,0.,12.0,0.,12.0,0.,12.0,0.,12.0
1980-11-14 18:37:27.680 ,7,1,0.,12.0,0.,12.0,0.,12.0,0.,12.0
1980-11-14 18:37:39.680 ,7,1,0.,12.0,0.,12.0,0.,12.0,0.,12.0
1980-11-14 18:37:51.680 ,7,0,0.,12.0,0.,12.0,0.,12.0,0.,12.0
1980-11-14 18:38:03.680 ,7,0,0.,12.0,0.,12.0,0.,12.0,0.,12.0
1980-11-14 18:38:15.680 ,6,1,0.,12.0,0.,12.0,0.,12.0,0.,12.0
1980-11-14 18:38:27.680 ,6,1,0.,12.0,0.,12.0,0.,12.0,0.,12.0
1980-11-14 18:38:39.680 ,6,0,0.,12.0,0.,12.0,0.,12.0,0.,12.0
1980-11-14 18:38:51.680 ,6,0,0.,12.0,0.,12.0,0.,12.0,0.,12.0
1980-11-14 18:39:03.680 ,5,1,0.,12.0,0.,12.0,0.,12.0,0.,12.0
1980-11-14 18:39:15.680 ,5,1,0.,12.0,0.,12.0,0.,12.0,0.,12.0
1980-11-14 18:39:27.680 ,5,0,0.,12.0,0.,12.0,0.,12.0,0.,12.0
1980-11-14 18:39:39.680 ,5,0,0.,12.0,0.,12.0,0.,12.0,0.,12.0
1980-11-14 18:39:51.680 ,4,1,0.,12.0,0.,12.0,0.,12.0,0.,12.0
1980-11-14 18:40:03.680 ,4,1,0.,12.0,0.,12.0,0.,12.0,0.,12.0
1980-11-14 18:40:15.680 ,4,0,0.,12.0,0.,12.0,0.,12.0,0.,12.0
1980-11-14 18:40:27.680 ,4,0,0.,12.0,0.,12.0,0.,12.0,0.,12.0
1980-11-14 18:40:39.680 ,3,1,0.,12.0,0.,12.0,0.,12.0,0.,12.0
1980-11-14 18:40:51.680 ,3,1,0.,12.0,0.,12.0,0.,12.0,0.,12.0
1980-11-14 18:41:03.680 ,3,0,0.,12.0,0.,12.0,0.,12.0,0.,12.0
1980-11-14 18:41:15.680 ,3,0,0.,12.0,0.,12.0,0.,12.0,0.,12.0
1980-11-14 18:41:27.680 ,2,1,0.,12.0,0.,12.0,0.,12.0,0.,12.0
1980-11-14 18:41:39.680 ,2,1,0.,12.0,0.,12.0,0.,12.0,0.,12.0
1980-11-14 18:41:51.680 ,2,0,0.,12.0,0.,12.0,0.,12.0,0.,12.0
1980-11-14 18:42:03.680 ,2,0,0.,12.0,0.,12.0,0.,12.0,0.,12.0
1980-11-14 18:42:15.680 ,1,1,0.,12.0,0.,12.0,0.,12.0,0.,12.0
1980-11-14 18:42:27.680 ,1,1,0.,12.0,0.,12.0,0.,12.0,0.,12.0
1980-11-14 18:42:39.680 ,1,0,0.,12.0,0.,12.0,0.,12.0,0.,12.0
1980-11-14 18:42:51.680 ,1,0,0.,12.0,0.,12.0,0.,12.0,0.,12.0
1980-11-14 18:43:03.680 ,0,1,0.,12.0,0.,12.0,0.,12.0,0.,12.0
1980-11-14 18:43:15.680 ,0,1,0.,12.0,0.,12.0,0.,12.0,0.,12.0
1980-11-14 18:43:27.680 ,0,0,0.,12.0,0.,12.0,0.,12.0,0.,12.0
1980-11-14 18:43:39.680 ,0,0,0.,12.0,0.,12.0,0.,12.0,0.,12.0
1980-11-14 18:43:51.680 ,0,1,0.,12.0,0.,12.0,0.,12.0,0.,12.0
1980-11-14 18:44:03.680 ,0,1,0.,12.0,0.,12.0,0.,12.0,0.,12.0
1980-11-14 18:44:15.680 ,0,0,0.,12.0,0.,12.0,0.,12.0,0.,12.0
1980-11-14 18:44:27.680 ,0,0,0.,12.0,0.,12.0,0.,12.0,0.,12.0
1980-11-14 18:44:39.680 ,1,1,0.,12.0,0.,12.0,0.,12.0,0.,12.0
1980-11-14 18:44:51.680 ,1,1,0.,12.0,0.,12.0,0.,12.0,0.,12.0
1980-11-14 18:45:03.680 ,1,0,0.,12.0,0.,12.0,0.,12.0,0.,12.0
1980-11-14 18:45:15.680 ,1,0,0.,12.0,0.,12.0,0.,12.0,0.,12.0
1980-11-14 18:45:27.680 ,2,1,0.,12.0,0.,12.0,0.,12.0,0.,12.0
1980-11-14 18:45:39.680 ,2,1,0.,12.0,0.,12.0,0.,12.0,0.,12.0
1980-11-14 18:45:51.680 ,2,0,0.,12.0,0.,12.0,0.,12.0,0.,12.0
1980-11-14 18:46:03.680 ,2,0,0.,12.0,0.,12.0,0.,12.0,0.,12.0
1980-11-14 18:46:15.680 ,3,1,0.,12.0,0.,12.0,0.,12.0,0.,12.0
1980-11-14 18:46:27.680 ,3,1,0.,12.0,0.,12.0,0.,12.0,0.,12.0
1980-11-14 18:46:39.680 ,3,0,0.,12.0,0.,12.0,0.,12.0,0.,12.0
1980-11-14 18:46:51.680 ,3,0,0.,12.0,0.,12.0,0.,12.0,0.,12.0
1980-11-14 18:47:03.680 ,4,1,0.,12.0,0.,12.0,0.,12.0,0.,12.0
1980-11-14 18:47:15.680 ,4,1,0.,12.0,0.,12.0,0.,12.0,0.,12.0
1980-11-14 18:47:27.680 ,4,0,0.,12.0,0.,12.0,0.,12.0,0.,12.0
1980-11-14 18:47:39.680 ,4,0,0.,12.0,0.,12.0,0.,12.0,0.,12.0
1980-11-14 18:47:51.680 ,5,1,0.,12.0,0.,12.0,0.,12.0,0.,12.0
1980-11-14 18:48:03.680 ,5,1,0.,12.0,0.,12.0,0.,12.0,0.,12.0
1980-11-14 18:48:15.680 ,5,0,0.,12.0,0.,12.0,0.,12.0,0.,12.0
1980-11-14 18:48:27.680 ,5,0,0.,12.0,0.,12.0,0.,12.0,0.,12.0
1980-11-14 18:48:39.680 ,6,1,0.,12.0,0.,12.0,0.,12.0,0.,12.0
1980-11-14 18:48:51.680 ,6,1,0.,12.0,0.,12.0,0.,12.0,0.,12.0
1980-11-14 18:49:03.680 ,6,0,0.,12.0,0.,12.0,0.,12.0,0.,12.0
1980-11-14 18:49:15.680 ,6,0,0.,12.0,0.,12.0,0.,12.0,0.,12.0
1980-11-14 18:49:27.680 ,7,1,0.,12.0,0.,12.0,0.,12.0,0.,12.0
1980-11-14 18:49:39.680 ,7,1,0.,12.0,0.,12.0,0.,12.0,0.,12.0
1980-11-14 18:49:51.680 ,7,0,0.,12.0,0.,12.0,0.,12.0,0.,12.0
1980-11-14 18:50:03.680 ,7,0,0.,12.0,0.,12.0,0.,12.0,0.,12.0
1980-11-14 18:50:15.680 ,7,1,0.,12.0,0.,12.0,0.,12.0,0.,12.0
1980-11-14 18:50:27.680 ,7,1,0.,12.0,0.,12.0,0.,12.0,0.,12.0
1980-11-14 18:50:39.680 ,7,0,0.,12.0,0.,12.0,0.,12.0,0.,12.0
1980-11-14 18:50:51.680 ,7,0,0.,12.0,0.,12.0,0.,12.0,0.,12.0
1980-11-14 18:51:03.680 ,6,1,0.,12.0,0.,12.0,0.,12.0,0.,12.0
1980-11-14 18:51:15.680 ,6,1,0.,12.0,0.,12.0,0.,12.0,0.,12.0
1980-11-14 18:51:27.680 ,6,0,0.,12.0,0.,12.0,0.,12.0,0.,12.0
1980-11-14 18:51:39.680 ,6,0,0.,12.0,0.,12.0,0.,12.0,0.,12.0
1980-11-14 18:51:51.680 ,5,1,0.,12.0,0.,12.0,0.,12.0,0.,12.0
1980-11-14 18:52:03.680 ,5,1,0.,12.0,0.,12.0,0.,12.0,0.,12.0
1980-11-14 18:52:15.680 ,5,0,0.,12.0,0.,12.0,0.,12.0,0.,12.0
1980-11-14 18:52:27.680 ,5,0,0.,12.0,0.,12.0,0.,12.0,0.,12.0
1980-11-14 18:52:39.680 ,4,1,0.,12.0,0.,12.0,0.,12.0,0.,12.0
1980-11-14 18:52:51.680 ,4,1,0.,12.0,0.,12.0,0.,12.0,0.,12.0
1980-11-14 18:53:03.680 ,4,0,0.,12.0,0.,12.0,0.,12.0,0.,12.0
1980-11-14 18:53:15.680 ,4,0,0.,12.0,0.,12.0,0.,12.0,0.,12.0
1980-11-14 18:53:27.680 ,3,1,0.,12.0,0.,12.0,0.,12.0,0.,12.0
1980-11-14 18:53:39.680 ,3,1,0.,12.0,0.,12.0,0.,12.0,0.,12.0
1980-11-14 18:53:51.680 ,3,0,0.,12.0,0.,12.0,0.,12.0,0.,12.0
1980-11-14 18:54:03.680 ,3,0,0.,12.0,0.,12.0,0.,12.0,0.,12.0
1980-11-14 18:54:15.680 ,2,1,0.,12.0,0.,12.0,0.,12.0,0.,12.0
1980-11-14 18:54:27.680 ,2,1,0.,12.0,0.,12.0,0.,12.0,0.,12.0
1980-11-14 18:54:39.680 ,2,0,0.,12.0,0.,12.0,0.,12.0,0.,12.0
1980-11-14 18:54:51.680 ,2,0,0.,12.0,0.,12.0,0.,12.0,0.,12.0
1980-11-14 18:55:03.680 ,1,1,0.,12.0,0.,12.0,0.,12.0,0.,12.0
1980-11-14 18:55:15.680 ,1,1,0.,12.0,0.,12.0,0.,12.0,0.,12.0
1980-11-14 18:55:27.680 ,1,0,0.,12.0,0.,12.0,0.,12.0,0.,12.0
1980-11-14 18:55:39.680 ,1,0,0.,12.0,0.,12.0,0.,12.0,0.,12.0
1980-11-14 18:55:51.680 ,0,1,0.,12.0,0.,12.0,0.,12.0,0.,12.0
1980-11-14 18:56:03.680 ,0,1,0.,12.0,0.,12.0,0.,12.0,0.,12.0
1980-11-14 18:56:15.680 ,0,0,0.,12.0,0.,12.0,0.,12.0,0.,12.0
1980-11-14 18:56:27.680 ,0,0,0.,12.0,0.,12.0,0.,12.0,0.,12.0
1980-11-14 18:56:39.680 ,0,1,0.,12.0,0.,12.0,0.,12.0,0.,12.0
1980-11-14 18:56:51.680 ,0,1,0.,12.0,0.,12.0,0.,12.0,0.,12.0
1980-11-14 18:57:03.680 ,0,0,0.,12.0,0.,12.0,0.,12.0,0.,12.0
1980-11-14 18:57:15.680 ,0,0,0.,12.0,0.,12.0,0.,12.0,0.,12.0
1980-11-14 18:57:27.680 ,1,1,0.,12.0,0.,12.0,0.,12.0,0.,12.0
1980-11-14 18:57:39.680 ,1,1,0.,12.0,0.,12.0,0.,12.0,0.,12.0
1980-11-14 18:57:51.680 ,1,0,0.,12.0,0.,12.0,0.,12.0,0.,12.0
1980-11-14 18:58:03.680 ,1,0,0.,12.0,0.,12.0,0.,12.0,0.,12.0
1980-11-14 18:58:15.680 ,2,1,0.,12.0,0.,12.0,0.,12.0,0.,12.0
1980-11-14 18:58:27.680 ,2,1,0.,12.0,0.,12.0,0.,12.0,0.,12.0
1980-11-14 18:58:39.680 ,2,0,0.,12.0,0.,12.0,0.,12.0,0.,12.0
1980-11-14 18:58:51.680 ,2,0,0.,12.0,0.,12.0,0.,12.0,0.,12.0
1980-11-14 18:59:03.680 ,3,1,0.,12.0,0.,12.0,0.,12.0,0.,12.0
1980-11-14 18:59:15.680 ,3,1,0.,12.0,0.,12.0,0.,12.0,0.,12.0
1980-11-14 18:59:27.680 ,3,0,0.,12.0,0.,12.0,0.,12.0,0.,12.0
1980-11-14 18:59:39.680 ,3,0,0.,12.0,0.,12.0,0.,12.0,0.,12.0
1980-11-14 18:59:51.680 ,4,1,0.,12.0,0.,12.0,0.,12.0,0.,12.0
1980-11-14 19:00:03.670 ,4,1,0.,12.0,0.,12.0,0.,12.0,0.,12.0
1980-11-14 19:00:15.680 ,4,0,0.,12.0,0.,12.0,0.,12.0,0.,12.0
1980-11-14 19:00:27.680 ,4,0,0.,12.0,0.,12.0,0.,12.0,0.,12.0
1980-11-14 19:00:39.680 ,5,1,0.,12.0,0.,12.0,0.,12.0,0.,12.0
1980-11-14 19:00:51.680 ,5,1,0.,12.0,0.,12.0,0.,12.0,0.,12.0
1980-11-14 19:01:03.680 ,5,0,0.,12.0,0.,12.0,0.,12.0,0.,12.0
1980-11-14 19:01:15.680 ,5,0,0.,12.0,0.,12.0,0.,12.0,0.,12.0
1980-11-14 19:01:27.680 ,6,1,0.,12.0,0.,12.0,0.,12.0,0.,12.0
1980-11-14 19:01:39.680 ,6,1,0.,12.0,0.,12.0,0.,12.0,0.,12.0
1980-11-14 19:01:51.680 ,6,0,0.,12.0,0.,12.0,0.,12.0,0.,12.0
1980-11-14 19:02:03.680 ,6,0,0.,12.0,0.,12.0,0.,12.0,0.,12.0
1980-11-14 19:02:15.680 ,7,1,0.,12.0,0.,12.0,0.,12.0,0.,12.0
1980-11-14 19:02:27.680 ,7,1,0.,12.0,0.,12.0,0.,12.0,0.,12.0
1980-11-14 19:02:39.680 ,7,0,0.,12.0,0.,12.0,0.,12.0,0.,12.0
1980-11-14 19:02:51.680 ,7,0,0.,12.0,0.,12.0,0.,12.0,0.,12.0
1980-11-14 19:03:03.680 ,7,1,0.,12.0,0.,12.0,0.,12.0,0.,12.0
1980-11-14 19:03:15.680 ,7,1,0.,12.0,0.,12.0,0.,12.0,0.,12.0
1980-11-14 19:03:27.680 ,7,0,0.,12.0,0.,12.0,0.,12.0,0.,12.0
1980-11-14 19:03:39.680 ,7,0,0.,12.0,0.,12.0,0.,12.0,0.,12.0
1980-11-14 19:03:51.680 ,6,1,0.,12.0,0.,12.0,0.,12.0,0.,12.0
1980-11-14 19:04:03.680 ,6,1,0.,12.0,0.,12.0,0.,12.0,0.,12.0
1980-11-14 19:04:15.680 ,6,0,0.,12.0,0.,12.0,0.,12.0,0.,12.0
1980-11-14 19:04:27.680 ,6,0,0.,12.0,0.,12.0,0.,12.0,0.,12.0
1980-11-14 19:04:39.680 ,5,1,0.,12.0,0.,12.0,0.,12.0,0.,12.0
1980-11-14 19:04:51.680 ,5,1,0.,12.0,0.,12.0,0.,12.0,0.,12.0
1980-11-14 19:05:03.680 ,5,0,0.,12.0,0.,12.0,0.,12.0,0.,12.0
1980-11-14 19:05:15.680 ,5,0,0.,12.0,0.,12.0,0.,12.0,0.,12.0
1980-11-14 19:05:27.680 ,4,1,0.,12.0,0.,12.0,0.,12.0,0.,12.0
1980-11-14 19:05:39.680 ,4,1,0.,12.0,0.,12.0,0.,12.0,0.,12.0
1980-11-14 19:05:51.680 ,4,0,0.,12.0,0.,12.0,0.,12.0,0.,12.0
1980-11-14 19:06:03.680 ,4,0,0.,12.0,0.,12.0,0.,12.0,0.,12.0
1980-11-14 19:06:15.680 ,3,1,0.,12.0,0.,12.0,0.,12.0,0.,12.0
1980-11-14 19:06:27.680 ,3,1,0.,12.0,0.,12.0,0.,12.0,0.,12.0
1980-11-14 19:06:39.680 ,3,0,0.,12.0,0.,12.0,0.,12.0,0.,12.0
1980-11-14 19:06:51.680 ,3,0,0.,12.0,0.,12.0,0.,12.0,0.,12.0
1980-11-14 19:07:03.680 ,0,0,,0,,0,,0,,0
1980-11-14 19:07:15.680 ,0,0,,0,,0,,0,,0
1980-11-14 19:07:27.680 ,0,0,,0,,0,,0,,0
1980-11-14 19:07:39.680 ,0,0,,0,,0,,0,,0
1980-11-14 19:07:03.680 ,0,0,,0,,0,,0,,0
1980-11-14 19:07:15.680 ,0,0,,0,,0,,0,,0
1980-11-14 19:07:27.680 ,0,0,,0,,0,,0,,0
1980-11-14 19:07:39.680 ,0,0,,0,,0,,0,,0
1980-11-14 19:07:04.270 ,2,1,0.,12.0,0.,12.0,0.,12.0,0.,12.0
1980-11-14 19:07:16.270 ,2,1,0.,12.0,0.,12.0,0.,12.0,0.,12.0
1980-11-14 19:07:27.680 ,2,0,0.,12.0,0.,12.0,0.,12.0,0.,12.0
1980-11-14 19:07:39.680 ,2,0,0.,12.0,0.,12.0,0.,12.0,0.,12.0
1980-11-14 19:07:51.680 ,1,1,0.,12.0,0.,12.0,0.,12.0,0.,12.0
1980-11-14 19:08:03.680 ,1,1,0.,12.0,0.,12.0,0.,12.0,0.,12.0
1980-11-14 19:08:15.680 ,1,0,0.,12.0,0.,12.0,0.,12.0,0.,12.0
1980-11-14 19:08:27.680 ,1,0,0.,12.0,0.,12.0,0.,12.0,0.,12.0
1980-11-14 19:08:39.670 ,0,1,0.,12.0,0.,12.0,0.,12.0,0.,12.0
1980-11-14 19:08:51.680 ,0,1,0.,12.0,0.,12.0,0.,12.0,0.,12.0
1980-11-14 19:09:03.670 ,0,0,0.,12.0,0.,12.0,0.,12.0,0.,12.0
1980-11-14 19:09:15.670 ,0,0,0.,12.0,0.,12.0,0.,12.0,0.,12.0
1980-11-14 19:09:27.670 ,0,1,0.,12.0,0.,12.0,0.,12.0,0.,12.0
1980-11-14 19:09:39.680 ,0,1,0.,12.0,0.,12.0,0.,12.0,0.,12.0
1980-11-14 19:09:51.670 ,0,0,0.,12.0,0.,12.0,0.,12.0,0.,12.0
1980-11-14 19:10:03.680 ,0,0,0.,12.0,0.,12.0,0.,12.0,0.,12.0
1980-11-14 19:10:15.670 ,1,1,0.,12.0,0.,12.0,0.,12.0,0.,12.0
1980-11-14 19:10:27.680 ,1,1,0.,12.0,0.,12.0,0.,12.0,0.,12.0
1980-11-14 19:10:39.670 ,1,0,0.,12.0,0.,12.0,0.,12.0,0.,12.0
1980-11-14 19:10:51.680 ,1,0,0.,12.0,0.,12.0,0.,12.0,0.,12.0
1980-11-14 19:11:03.670 ,2,1,0.,12.0,0.,12.0,0.,12.0,0.,12.0
1980-11-14 19:11:15.670 ,2,1,0.,12.0,0.,12.0,0.,12.0,0.,12.0
1980-11-14 19:11:27.670 ,2,0,0.,12.0,0.,12.0,0.,12.0,0.,12.0
1980-11-14 19:11:39.680 ,2,0,0.,12.0,0.,12.0,0.,12.0,0.,12.0
1980-11-14 19:11:51.670 ,3,1,0.,12.0,0.,12.0,0.,12.0,0.,12.0
1980-11-14 19:12:03.680 ,3,1,0.,12.0,0.,12.0,0.,12.0,0.,12.0
1980-11-14 19:12:15.670 ,3,0,0.,12.0,0.,12.0,0.,12.0,0.,12.0
1980-11-14 19:12:27.680 ,3,0,0.,12.0,0.,12.0,0.,12.0,0.,12.0
1980-11-14 19:12:39.670 ,4,1,0.,12.0,0.,12.0,0.,12.0,0.,12.0
1980-11-14 19:12:51.680 ,4,1,0.,12.0,0.,12.0,0.,12.0,0.,12.0
1980-11-14 19:13:03.670 ,4,0,0.,12.0,0.,12.0,0.,12.0,0.,12.0
1980-11-14 19:13:15.670 ,4,0,0.,12.0,0.,12.0,0.,12.0,0.,12.0
1980-11-14 19:13:27.670 ,5,1,0.,12.0,0.,12.0,0.,12.0,0.,12.0
1980-11-14 19:13:39.680 ,5,1,0.,12.0,0.,12.0,0.,12.0,0.,12.0
1980-11-14 19:13:51.670 ,5,0,0.,12.0,0.,12.0,0.,12.0,0.,12.0
1980-11-14 19:14:03.680 ,5,0,0.,12.0,0.,12.0,0.,12.0,0.,12.0
1980-11-14 19:14:15.680 ,6,1,0.,12.0,0.,12.0,0.,12.0,0.,12.0
1980-11-14 19:14:27.680 ,6,1,0.,12.0,0.,12.0,0.,12.0,0.,12.0
1980-11-14 19:14:39.680 ,6,0,0.,12.0,0.,12.0,0.,12.0,0.,12.0
1980-11-14 19:14:51.680 ,6,0,0.,12.0,0.,12.0,0.,12.0,0.,12.0
1980-11-14 19:15:03.680 ,7,1,0.,12.0,0.,12.0,0.,12.0,0.,12.0
1980-11-14 19:15:15.680 ,7,1,0.,12.0,0.,12.0,0.,12.0,0.,12.0
1980-11-14 19:15:27.680 ,7,0,0.,12.0,0.,12.0,0.,12.0,0.,12.0
1980-11-14 19:15:39.680 ,7,0,0.,12.0,0.,12.0,0.,12.0,0.,12.0
1980-11-14 19:15:51.680 ,7,1,0.,12.0,0.,12.0,0.,12.0,0.,12.0
1980-11-14 19:16:03.680 ,7,1,0.,12.0,0.,12.0,0.,12.0,0.,12.0